Location: Peterborough
(44.3091°N, 78.3197°W)
Time: 04:19:31
(UTC-04:00)

Tiros 1 despin weight - Pass Details

Date: 22 March 2023
Orbit: 586 x 632 km, 48.2° (Epoch: 08 June)

Event Time Altitude Azimuth Distance (km) Brightness Sun altitude
Rises 03:41:29 0° 290° (WNW) 2,847 - -35.2°
Reaches altitude 10° 03:43:47 10° 292° (WNW) 1,951 - -35.0°
Maximum altitude 03:48:15 76° 18° (NNE) 633 - -34.4°
Drops below altitude 10° 03:52:49 10° 105° (ESE) 1,978 - -33.8°
Exits shadow 03:52:50 10° 105° (ESE) 1,988 ? -33.8°
Sets 03:55:08 0° 107° (ESE) 2,890 ? -33.5°
